Home   Weather   Pontiac   Past weeks

Flag for USA Past Weather in Pontiac, Michigan, USA — Yesterday and Last 2 Weeks

Now
34 °F

Mostly cloudy.


Feels Like: 27 °F
Forecast: 30 / 39 °F
Wind: 9 mph from East

Location: Oakland County International Airport

Current Time: Dec 6, 2016 at 7:18:21 am

Latest Report: Dec 6, 2016 at 6:53 am


Visibility: 8 mi

Pressure: 29.92 "Hg

Humidity: 85%

Dew Point: 30 °F

Location of PontiacLocation

Past Weather in Pontiac — Graph

°F

Pontiac Temperature Yesterday

Maximum temperature yesterday: 41 °F (at 2:53 pm)
Minimum temperature yesterday: 26 °F (at 10:53 pm)
Average temperature yesterday: 34 °F

High & Low Weather Summary for the Past Weeks

 TemperatureHumidityPressure
High57 °F (Nov 29, 1:53 pm)97% (Nov 30, 9:53 am)30.37 "Hg (Nov 30, 9:53 am)
Low22 °F (Nov 22, 4:53 am)42% (Nov 22, 3:53 pm)29.39 "Hg (Nov 29, 12:53 am)
Average37 °F80%30.02 "Hg
* Reported Nov 21 5:53 am — Dec 6 5:53 am, Pontiac, Weather by CustomWeather, © 2016

Note: Actual official high and low records may vary slightly from our data, if they occured in-between our weather recording intervals... More about our weather records

Advertising

Pontiac Weather History for the Previous 24 Hours

Scroll right to see more
 ConditionsComfort  
Time TempWeatherWind HumidityBarometerVisibility
5:53 am
Tue, Dec 6
34 °FOvercast.8 mph85%29.94 "Hg8 mi
4:53 am33 °FOvercast.6 mph88%29.98 "Hg8 mi
3:53 am32 °FOvercast.7 mph85%29.99 "Hg7 mi
2:53 am29 °FIce fog.5 mph89%30.03 "Hg6 mi
1:53 am27 °FIce fog.6 mph89%30.03 "Hg5 mi
12:53 am25 °FIce fog.5 mph92%30.05 "Hg4 mi
11:53 pm
Mon, Dec 5
28 °FClear.5 mph81%30.06 "Hg5 mi
10:53 pm26 °FIce fog.3 mph88%30.07 "Hg5 mi
9:53 pm27 °FClear.No wind89%30.07 "Hg7 mi
8:53 pm31 °FPassing clouds.5 mph85%30.07 "Hg8 mi
7:53 pm33 °FPassing clouds.3 mph78%30.06 "Hg10 mi
6:53 pm34 °FPassing clouds.5 mph79%30.07 "Hg10 mi
5:53 pm37 °FPassing clouds.8 mph73%30.06 "Hg10 mi
4:53 pm38 °FPartly sunny.9 mph70%30.06 "Hg10 mi
3:53 pm39 °FPartly sunny.9 mph70%30.05 "Hg10 mi
2:53 pm41 °FPartly sunny.7 mph67%30.02 "Hg10 mi
1:53 pm39 °FPartly sunny.12 mph73%30.03 "Hg10 mi
12:53 pm39 °FOvercast.8 mph73%30.04 "Hg10 mi
11:53 am37 °FOvercast.9 mph82%30.03 "Hg10 mi
10:53 am37 °FOvercast.9 mph79%30.03 "Hg10 mi
9:53 am35 °FOvercast.8 mph85%30.03 "Hg9 mi
8:53 am34 °FPartly sunny.8 mph88%30.00 "Hg9 mi
7:53 am34 °FMore clouds than sun.15 mph88%29.98 "Hg10 mi
Weather by CustomWeather, © 2016

See weather overviewHow to use our weather pages